Location: *
(46.0770°N, 1.6444°E)
Time: 15:08:35
(UTC+00:00)

Cosmos 1455 Rocket - Pass Details

Date: 16 September 2019
Orbit: 605 x 630 km, 82.5° (Epoch: 19 October)

Event Time Altitude Azimuth Distance (km) Brightness Sun altitude
Exits shadow 19:44:40 34° 91° (E) 1,032 3.7 -17.8°
Maximum altitude 19:44:42 34° 91° (E) 1,032 3.7 -17.8°
Drops below altitude 10° 19:48:43 10° 26° (NNE) 2,014 5.7 -18.4°
Sets 19:51:07 0° 18° (NNE) 2,929 6.6 -18.8°
